Location: M?digepalle
(16.1753°N, 80.3496°E)
Time: 09:00:16
(UTC+00:00)

SL-08 R/B - Pass Details

Date: 29 October 2020
Orbit: 946 x 994 km, 83.0° (Epoch: 27 November)

Event Time Altitude Azimuth Distance (km) Brightness Sun altitude
Rises 12:55:58 0° 1° (N) 3,618 7.4 -11.7°
Reaches altitude 10° 12:58:29 10° 4° (N) 2,668 6.6 -12.3°
Maximum altitude 13:04:31 65° 85° (E) 1,034 4.4 -13.7°
Drops below altitude 10° 13:10:31 10° 167° (SSE) 2,658 6.8 -15.1°
Sets 13:13:01 0° 170° (S) 3,603 7.5 -15.7°
